Weather History for Springfield, VT

Change the Weather History Date:

Wednesday, October 3, 2012

  Actual Average Record
Temperature  
Mean Temperature 62 °F 52 °F  
Max Temperature 65 °F 63 °F 78 °F (2001)
Min Temperature 59 °F 40 °F 28 °F (2003)
Degree Days  
Heating Degree Days 3 13  
Month to date heating degree days 20 39  
Since 1 July heating degree days 206 291  
Cooling Degree Days 0 0  
Month to date cooling degree days 0 0  
Year to date cooling degree days 639 344  
Growing Degree Days 12 (Base 50)    
Moisture  
Dew Point 59 °F    
Average Humidity 90    
Maximum Humidity 93    
Minimum Humidity 87    
Precipitation  
Precipitation 0.05 in 0.16 in 0.09 in (1997)
Month to date precipitation 0.18 0.50  
Year to date precipitation 26.17 32.63  
Sea Level Pressure  
Sea Level Pressure 30.11 in    
Wind  
Wind Speed 0 mph (North)    
Max Wind Speed 5 mph    
Max Gust Speed 35 mph    
Visibility 6 miles    
Events Rain    
T = Trace of Precipitation, MM = Missing Value Source: NWS Daily Summary

Daily Weather History Graph

Daily Weather History Graph

Search for Another Location

Airport:

Trip Planner

Search our weather history database for the weather conditions in past years. The results will help you decide how hot, cold, wet, or windy it might be!

Date:

Astronomy

Oct. 03, 2012 Rise Set
Actual Time 6:50 AM EDT 6:26 PM EDT
Civil Twilight 6:21 AM EDT 6:55 PM EDT
Nautical Twilight 5:48 AM EDT 7:28 PM EDT
Astronomical Twilight 5:15 AM EDT 8:01 PM EDT
Moon 8:09 PM EDT (10/3) 10:17 AM EDT (10/3)
Length of Visible Light 12h 33m
Length of Day
11h 36m
Waning Gibbous, 89% of the Moon is Illuminated
Oct 3
Waning Gibbous
Oct 8
Last Quarter
Oct 15
New
Oct 21
First Quarter
Oct 29
Full

Hourly Weather History & Observations

Time (EDT) Temp. Dew Point Humidity Pressure Visibility Wind Dir Wind Speed Gust Speed Precip Events Conditions
12:54 AM 59.0 °F 57.0 °F 93% 30.06 in 7.0 mi Calm Calm - N/A   Overcast
1:54 AM 59.0 °F 57.0 °F 93% 30.07 in 5.0 mi Calm Calm - N/A   Overcast
2:54 AM 59.0 °F 57.0 °F 93% 30.06 in 8.0 mi Calm Calm - N/A   Overcast
3:15 AM 59.0 °F 57.2 °F 94% 30.06 in 8.0 mi Calm Calm - N/A   Overcast
3:54 AM 59.0 °F 57.0 °F 93% 30.06 in 5.0 mi Calm Calm - N/A   Overcast
4:06 AM 60.8 °F 57.2 °F 88% 30.06 in 7.0 mi Calm Calm - N/A   Overcast
4:51 AM 59.0 °F 57.2 °F 94% 30.06 in 6.0 mi Calm Calm - N/A   Overcast
4:54 AM 59.0 °F 57.0 °F 93% 30.06 in 6.0 mi Calm Calm - N/A   Overcast
5:12 AM 59.0 °F 57.2 °F 94% 30.07 in 5.0 mi Calm Calm - N/A   Overcast
5:37 AM 59.0 °F 57.2 °F 94% 30.07 in 4.0 mi Calm Calm - N/A   Overcast
5:54 AM 59.0 °F 57.0 °F 93% 30.08 in 2.5 mi Calm Calm - N/A   Overcast
6:42 AM 59.0 °F 57.2 °F 94% 30.09 in 3.0 mi Calm Calm - 0.01 in   Overcast
6:54 AM 59.0 °F 57.0 °F 93% 30.09 in 5.0 mi Calm Calm - 0.01 in   Overcast
7:18 AM 59.0 °F 57.2 °F 94% 30.09 in 1.8 mi Calm Calm - 0.00 in Rain Light Rain
7:28 AM 59.0 °F 57.2 °F 94% 30.09 in 1.8 mi Calm Calm - 0.00 in Rain Light Rain
7:35 AM 59.0 °F 57.2 °F 94% 30.09 in 2.0 mi Calm Calm - 0.00 in   Overcast
7:54 AM 59.0 °F 57.0 °F 93% 30.10 in 1.5 mi Calm Calm - 0.00 in Rain Light Rain
8:12 AM 59.0 °F 57.2 °F 94% 30.10 in 1.2 mi Calm Calm - 0.00 in   Overcast
8:54 AM 59.0 °F 57.9 °F 96% 30.11 in 1.0 mi Calm Calm - 0.01 in Rain Light Rain
9:27 AM 60.8 °F 57.2 °F 88% 30.12 in 3.0 mi Calm Calm - 0.01 in   Overcast
9:35 AM 60.8 °F 57.2 °F 88% 30.12 in 4.0 mi Calm Calm - 0.01 in   Overcast
9:54 AM 61.0 °F 57.9 °F 90% 30.12 in 4.0 mi Calm Calm - 0.01 in Rain Light Rain
10:20 AM 60.8 °F 57.2 °F 88% 30.12 in 3.0 mi Calm Calm - 0.01 in   Overcast
10:31 AM 60.8 °F 57.2 °F 88% 30.11 in 1.8 mi Calm Calm - 0.01 in   Overcast
10:54 AM 62.1 °F 57.9 °F 86% 30.13 in 1.8 mi Calm Calm - 0.01 in   Overcast
11:02 AM 62.6 °F 59.0 °F 88% 30.12 in 3.0 mi Calm Calm - N/A   Overcast
11:54 AM 63.0 °F 59.0 °F 87% 30.12 in 2.0 mi Calm Calm - 0.01 in   Overcast
12:06 PM 62.6 °F 59.0 °F 88% 30.12 in 3.0 mi Calm Calm - N/A   Overcast
12:13 PM 62.6 °F 59.0 °F 88% 30.12 in 2.0 mi Calm Calm - N/A   Overcast
12:39 PM 62.6 °F 60.8 °F 94% 30.12 in 1.8 mi Calm Calm - 0.00 in Rain Light Rain
12:46 PM 62.6 °F 59.0 °F 88% 30.11 in 3.0 mi Calm Calm - 0.00 in Rain Light Rain
12:54 PM 63.0 °F 60.1 °F 90% 30.11 in 3.0 mi Calm Calm - 0.00 in   Overcast
1:54 PM 64.9 °F 60.1 °F 84% 30.10 in 10.0 mi Calm Calm - N/A   Overcast
2:41 PM 64.4 °F 60.8 °F 88% 30.10 in 9.0 mi Calm Calm - N/A   Overcast
2:54 PM 64.9 °F 61.0 °F 87% 30.10 in 10.0 mi Calm Calm - N/A   Overcast
3:54 PM 64.9 °F 61.0 °F 87% 30.10 in 10.0 mi Calm Calm - N/A   Overcast
4:54 PM 64.9 °F 61.0 °F 87% 30.12 in 10.0 mi Calm Calm - N/A   Overcast
5:05 PM 64.4 °F 62.6 °F 94% 30.11 in 9.0 mi Calm Calm - N/A   Overcast
5:54 PM 64.0 °F 62.1 °F 93% 30.12 in 7.0 mi Calm Calm - N/A   Overcast
6:16 PM 64.4 °F 62.6 °F 94% 30.12 in 9.0 mi Calm Calm - N/A   Overcast
6:43 PM 64.4 °F 60.8 °F 88% 30.13 in 8.0 mi Calm Calm - N/A   Overcast
6:54 PM 64.0 °F 61.0 °F 90% 30.13 in 10.0 mi Calm Calm - N/A   Overcast
7:01 PM 64.4 °F 60.8 °F 88% 30.12 in 10.0 mi Calm Calm - N/A   Overcast
7:30 PM 64.4 °F 60.8 °F 88% 30.13 in 10.0 mi Calm Calm - N/A   Overcast
7:51 PM 64.4 °F 60.8 °F 88% 30.14 in 10.0 mi Calm Calm - N/A   Overcast
7:54 PM 64.0 °F 61.0 °F 90% 30.14 in 10.0 mi Calm Calm - N/A   Overcast
8:54 PM 64.0 °F 61.0 °F 90% 30.15 in 10.0 mi Calm Calm - N/A   Overcast
9:13 PM 62.6 °F 60.8 °F 94% 30.15 in 6.0 mi Calm Calm - N/A   Overcast
9:54 PM 63.0 °F 61.0 °F 93% 30.16 in 10.0 mi Calm Calm - N/A   Overcast
10:54 PM 63.0 °F 60.1 °F 90% 30.16 in 7.0 mi Calm Calm - N/A   Overcast
11:54 PM 63.0 °F 60.1 °F 90% 30.17 in 7.0 mi Calm Calm - N/A   Overcast